Current weather by "City, St" or "zip code"  
 

Current Conditions: Knoxville, McGhee Tyson Airport, TN

Light Rain


69.0 F

Last Updated on Oct 29 2020, 7:53 pm EDT
Humidity: 51%
Wind Speed: W 15.0 mph
Barometer 29.59 in
Dewpoint: 50.0 F
Visibility: 10.00 mi
Precip: Trace
Heat Index: NA
Wind Chill: NA
Current conditions at:

Knoxville, McGhee Tyson Airport, TN (KTYS)

Lat: 35.81806 Lon: 83.98583

Local Radar Image active severe weather and emergency alerts image image weather storm and storm spotter reports image weather observation monitoring service image
Local
Radar
Active
Alerts
Storm Reports Obs
Monitoring

Sign-up For Email & Text Message Weather Alert Notification Services



Advertise Here

Observation History for Knoxville, McGhee Tyson Airport, TN


Time Wind
(mph)
Vis
(mi)
Weather Precip (in) Temperature (F) Relative
Humidity
Wind
Chill
(F)
Heat
Index
(F)
Pressure
Air Dwpt altimeter
(in)
sea level
(mb)
Rmks
7:53 pm EDT W 15.0 10.00 Light Rain Trace 69.0 50.0 51% NA NA 29.59 1001.2
6:53 pm EDT W 13.8 10.00 A Few Clouds -- 71.0 51.1 49% NA NA 29.55 999.8
5:53 pm EDT SW 16.1 10.00 A Few Clouds -- 75.0 60.1 60% NA NA 29.54 999.2
4:53 pm EDT W 16.1 10.00 Partly Cloudy -- 78.0 60.1 54% NA NA 29.54 999.3
3:53 pm EDT SW 16.1 10.00 Mostly Cloudy -- 77.0 66.0 69% NA NA 29.54 999.1
2:53 pm EDT SW 16.1 G 27.6 10.00 Partly Cloudy -- 79.0 66.9 67% NA NA 29.54 999.4
1:53 pm EDT SW 21.9 G 31.1 10.00 Partly Cloudy and Breezy -- 77.0 68.0 74% NA NA 29.59 1000.8
12:53 pm EDT SW 20.7 G 33.4 10.00 Mostly Cloudy and Breezy -- 75.0 70.0 84% NA NA 29.62 1001.9
11:53 am EDT SW 24.2 G 32.2 10.00 Overcast and Breezy Trace 73.0 71.1 94% NA NA 29.62 1001.9
10:53 am EDT SW 13.8 3.00 Light Rain Fog/Mist 00.01 68.0 68.0 100% NA NA 29.62 1002.3
9:53 am EDT SW 11.5 7.00 Overcast Trace 68.0 68.0 100% NA NA 29.60 1001.5
8:53 am EDT W 11.5 2.50 Light Rain Fog/Mist 00.05 68.0 66.9 96% NA NA 29.54 999.4
7:53 am EDT N 5.8 2.50 Light Rain Fog/Mist 00.24 67.0 66.9 100% NA NA 29.44 996.0
6:53 am EDT NE 17.3 G 29.9 2.50 Heavy Rain Fog/Mist 00.33 67.0 66.9 100% NA NA 29.40 994.8
5:53 am EDT NE 15.0 2.50 Heavy Rain Fog/Mist 00.24 66.0 66.0 100% NA NA 29.49 997.6
4:53 am EDT N 10.4 9.00 Rain 00.03 67.0 66.0 97% NA NA 29.58 1000.9
3:53 am EDT NE 6.9 3.00 Rain Fog/Mist 00.08 66.0 66.0 100% NA NA 29.66 1003.6
1:53 am EDT E 4.6 1.50 Rain Fog/Mist 00.01 66.0 66.0 100% NA NA 29.77 1007.3
12:53 am EDT NE 4.6 1.50 Rain Fog/Mist 00.10 66.0 66.0 100% NA NA 29.81 1008.6
11:53 pm EDT E 4.6 2.50 Rain Fog/Mist 00.06 66.0 66.0 100% NA NA 29.85 1009.8
10:53 pm EDT NE 4.6 9.00 Light Rain 00.01 66.0 66.0 100% NA NA 29.87 1010.8
9:53 pm EDT NE 3.5 9.00 Light Rain Trace 66.0 66.0 100% NA NA 29.89 1011.5
8:53 pm EDT NE 4.6 7.00 Light Rain 00.04 66.0 66.0 100% NA NA 29.92 1012.4

Regional Weather Observation


Knoxville, McGhee Tyson Airport, TN (KTYS)

Light Rain
69.0 F

Middlesboro, Middlesboro-Bell County Airport, KY (K1A6)

Overcast
64.0 F

Andrews-Murphy Airport, NC (KRHP)

Fair
66.0 F

Monticello, Wayne County Airport, KY (KEKQ)

Mostly Cloudy and Windy
58.0 F

Crossville, Crossville Memorial-Whitson Field Airport, TN (KCSV)

Partly Cloudy
57.0 F

Macon County Airport, NC (K1A5)

Mostly Cloudy
70.0 F